Change the Weather History Date:

Thursday, September 26, 2013

  Actual Average Record
Temperature  
Mean Temperature 42 °F -  
Max Temperature 50 °F 43 °F 60 °F (2002)
Min Temperature 35 °F 27 °F 23 °F (2014)
Degree Days  
Heating Degree Days 22    
Moisture  
Dew Point 36 °F    
Average Humidity 79    
Maximum Humidity 93    
Minimum Humidity 52    
Precipitation  
Precipitation 0.00 in - - ()
Sea Level Pressure  
Sea Level Pressure 29.59 in    
Wind  
Wind Speed 4 mph (West)    
Max Wind Speed 12 mph    
Max Gust Speed -    
Visibility 10 miles    
Events      
Averages and records for this station are not official NWS values.
T = Trace of Precipitation, MM = Missing Value Source: NWS Daily Summary

Daily Weather History Graph

Daily Weather History Graph

Search for Another Location

Airport or City:

Trip Planner

Search our weather history database for the weather conditions in past years. The results will help you decide how hot, cold, wet, or windy it might be!

Date:

Astronomy

Sep. 26, 2013 Rise Set
Actual Time 7:38 AM AKDT 7:27 PM AKDT
Civil Twilight 6:51 AM AKDT 8:15 PM AKDT
Nautical Twilight 5:54 AM AKDT 9:11 PM AKDT
Astronomical Twilight 4:50 AM AKDT 10:14 PM AKDT
Moon 10:44 PM AKDT (9/26) 4:30 PM AKDT (9/26)
Length of Visible Light 13h 23m
Length of Day
11h 49m
Waning Gibbous, 53% of the Moon is Illuminated
Sep 26
Waning Gibbous
Sep 26
Last Quarter
Oct 4
New
Oct 11
First Quarter
Oct 18
Full

Hourly Weather History & Observations

Time (AKDT) Temp. Windchill Dew Point Humidity Pressure Visibility Wind Dir Wind Speed Gust Speed Precip Events Conditions
12:53 AM 44.1 °F 39.0 °F 35.1 °F 71% 29.64 in 10.0 mi WNW 9.2 mph - N/A   Scattered Clouds
1:53 AM 41.0 °F 37.1 °F 35.1 °F 79% 29.64 in 10.0 mi West 5.8 mph - N/A   Clear
2:53 AM 39.0 °F - 34.0 °F 82% 29.65 in 10.0 mi Calm Calm - N/A   Partly Cloudy
3:53 AM 37.9 °F 32.7 °F 34.0 °F 86% 29.65 in 10.0 mi WSW 6.9 mph - N/A   Scattered Clouds
4:53 AM 37.9 °F 35.5 °F 34.0 °F 86% 29.66 in 10.0 mi SSW 3.5 mph - N/A   Clear
5:53 AM 37.9 °F - 34.0 °F 86% 29.65 in 10.0 mi Calm Calm - N/A   Scattered Clouds
6:53 AM 37.0 °F 33.3 °F 34.0 °F 89% 29.66 in 10.0 mi SW 4.6 mph - N/A   Partly Cloudy
7:30 AM 35.6 °F 30.7 °F 33.8 °F 93% 29.62 in 10.0 mi West 5.8 mph - N/A   Overcast
7:53 AM 37.0 °F 34.5 °F 34.0 °F 89% 29.66 in 10.0 mi WSW 3.5 mph - N/A   Overcast
8:53 AM 37.0 °F - 34.0 °F 89% 29.67 in 10.0 mi Calm Calm - N/A   Overcast
9:53 AM 39.0 °F - 35.1 °F 86% 29.67 in 10.0 mi Calm Calm - N/A   Overcast
10:53 AM 41.0 °F - 37.0 °F 86% 29.66 in 10.0 mi Calm Calm - N/A   Overcast
11:25 AM 42.8 °F - 35.6 °F 76% 29.62 in 10.0 mi Calm Calm - N/A   Mostly Cloudy
11:36 AM 42.8 °F 41.1 °F 35.6 °F 76% 29.62 in 10.0 mi West 3.5 mph - N/A   Mostly Cloudy
11:43 AM 42.8 °F - 35.6 °F 76% 29.62 in 10.0 mi Calm Calm - N/A   Scattered Clouds
11:53 AM 44.1 °F - 37.0 °F 76% 29.65 in 10.0 mi Calm Calm - N/A   Scattered Clouds
12:53 PM 45.0 °F 43.5 °F 37.0 °F 74% 29.64 in 10.0 mi Variable 3.5 mph - N/A   Mostly Cloudy
1:53 PM 46.0 °F - 37.0 °F 71% 29.62 in 10.0 mi Calm Calm - N/A   Mostly Cloudy
2:53 PM 46.9 °F - 37.0 °F 68% 29.60 in 10.0 mi WNW 3.5 mph - N/A   Mostly Cloudy
3:53 PM 48.0 °F - 36.0 °F 63% 29.59 in 10.0 mi NNW 6.9 mph - N/A   Overcast
4:53 PM 46.9 °F - 37.0 °F 68% 29.56 in 10.0 mi NNW 8.1 mph - N/A   Overcast
5:53 PM 46.0 °F 43.9 °F 37.0 °F 71% 29.54 in 10.0 mi NNW 4.6 mph - N/A   Overcast
6:53 PM 45.0 °F - 37.0 °F 74% 29.52 in 10.0 mi Calm Calm - N/A   Overcast
7:53 PM 43.0 °F 39.5 °F 37.0 °F 80% 29.49 in 10.0 mi WSW 5.8 mph - N/A   Overcast
8:53 PM 42.1 °F 40.2 °F 37.0 °F 82% 29.47 in 10.0 mi SW 3.5 mph - N/A   Overcast
9:53 PM 39.9 °F - 36.0 °F 86% 29.45 in 10.0 mi Calm Calm - N/A   Mostly Cloudy
10:53 PM 37.9 °F 32.1 °F 35.1 °F 89% 29.42 in 10.0 mi ESE 8.1 mph - N/A   Clear
11:53 PM 39.9 °F 32.9 °F 35.1 °F 83% 29.38 in 10.0 mi ESE 11.5 mph - N/A   Clear